HP3ICC-13 Weather Reports


time (UTC)temp
F
wind
direction
speed
knots
gust
knots
rain 1hr
in
rain 24hr
in
rain mn
in
humidity
%
barometer
mb
20260504100305 81 1 4.3 9.6 0.00 0.00 0.00 81 1010.0
20260504100204 81 1 4.3 9.6 0.00 0.00 0.00 81 1010.0
20260504080301 81 1 4.3 9.6 0.00 0.00 0.00 81 1010.0
20260504080201 81 1 4.3 9.6 0.00 0.00 0.00 81 1010.0
20260504070259 81 1 4.3 9.6 0.00 0.00 0.00 81 1011.0
20260504070159 81 1 4.3 9.6 0.00 0.00 0.00 81 1011.0
20260504060158 81 1 4.3 9.6 0.00 0.00 0.00 81 1011.0
20260504050257 81 1 4.3 9.6 0.00 0.00 0.00 81 1012.0
20260504050156 81 1 4.3 9.6 0.00 0.00 0.00 81 1012.0
20260504044256 81 1 4.3 9.6 0.00 0.00 0.00 81 1012.0
20260504044156 81 1 4.3 9.6 0.00 0.00 0.00 81 1012.0
20260504042255 81 1 4.3 9.6 0.00 0.00 0.00 81 1012.0
20260504042156 81 1 4.3 9.6 0.00 0.00 0.00 81 1012.0
20260504040255 81 1 4.3 9.6 0.00 0.00 0.00 81 1012.0
20260504040155 81 1 4.3 9.6 0.00 0.00 0.00 81 1012.0
20260504034255 81 1 4.3 9.6 0.00 0.00 0.00 81 1012.0
20260504034154 81 1 4.3 9.6 0.00 0.00 0.00 81 1012.0
20260504032254 81 1 4.3 9.6 0.00 0.00 0.00 81 1011.0
20260504032154 81 1 4.3 9.6 0.00 0.00 0.00 81 1011.0
20260504030253 81 1 4.3 9.6 0.00 0.00 0.00 81 1011.0
20260504030153 81 1 4.3 9.6 0.00 0.00 0.00 81 1011.0
20260504024253 81 1 4.3 9.6 0.00 0.00 0.00 81 1011.0
20260504024153 81 1 4.3 9.6 0.00 0.00 0.00 81 1011.0
20260504022253 81 1 4.3 9.6 0.00 0.00 0.00 81 1011.0
20260504022152 81 1 4.3 9.6 0.00 0.00 0.00 81 1011.0
20260504020252 81 1 4.3 9.6 0.00 0.00 0.00 81 1011.0
20260504020152 81 1 4.3 9.6 0.00 0.00 0.00 81 1011.0
20260504014251 81 1 4.3 9.6 0.00 0.00 0.00 81 1011.0
20260504014151 81 1 4.3 9.6 0.00 0.00 0.00 81 1011.0
20260504012251 81 1 4.3 9.6 0.00 0.00 0.00 81 1010.0
20260504012151 81 1 4.3 9.6 0.00 0.00 0.00 81 1010.0
20260504010251 81 1 5.2 10.4 0.00 0.00 0.00 81 1010.0
20260504010150 81 1 5.2 10.4 0.00 0.00 0.00 81 1010.0
20260504004250 84 2 7.0 13.0 0.00 0.00 0.00 74 1010.0
20260504004149 84 2 7.0 13.0 0.00 0.00 0.00 74 1010.0
20260504002249 84 2 7.0 13.0 0.00 0.00 0.00 74 1010.0
20260504002149 84 2 7.0 13.0 0.00 0.00 0.00 74 1010.0
20260504000248 84 2 7.0 13.0 0.01 0.00 0.00 74 1010.0
20260504000148 84 2 7.0 13.0 0.01 0.00 0.00 74 1010.0
20260503234248 84 2 7.0 13.0 0.02 0.00 0.00 74 1010.0
20260503234148 84 2 7.0 13.0 0.02 0.00 0.00 74 1010.0
20260503232247 84 2 7.0 13.0 0.03 0.00 0.00 74 1009.0
20260503232147 84 2 7.0 13.0 0.03 0.00 0.00 74 1009.0
20260503230247 84 2 7.8 13.9 0.05 0.00 0.00 74 1009.0
20260503230147 84 2 7.8 13.9 0.05 0.00 0.00 74 1009.0
20260503224246 87 43 4.3 6.1 0.04 0.00 0.00 68 1009.0
20260503224146 87 43 4.3 6.1 0.04 0.00 0.00 68 1009.0
20260503222246 87 43 4.3 6.1 0.01 0.00 0.00 68 1009.0
20260503222146 87 43 4.3 6.1 0.01 0.00 0.00 68 1009.0
20260503220245 87 43 4.3 6.1 0.00 0.00 0.00 68 1009.0
20260503220145 87 43 4.3 6.1 0.00 0.00 0.00 68 1009.0
20260503214244 87 43 4.3 6.1 0.00 0.00 0.00 68 1009.0
20260503214144 87 43 4.3 6.1 0.00 0.00 0.00 68 1009.0
20260503212244 87 43 4.3 6.1 0.00 0.00 0.00 68 1009.0
20260503212144 87 43 4.3 6.1 0.00 0.00 0.00 68 1009.0
20260503210243 87 43 4.3 6.1 0.00 0.00 0.00 68 1009.0
20260503210143 87 43 4.3 6.1 0.00 0.00 0.00 68 1009.0
20260503204243 87 43 4.3 6.1 0.03 0.00 0.00 68 1009.0
20260503204142 87 43 4.3 6.1 0.03 0.00 0.00 68 1009.0
20260503202242 87 43 4.3 6.1 0.00 0.00 0.00 68 1009.0
20260503202142 87 43 4.3 6.1 0.00 0.00 0.00 68 1009.0
20260503200242 87 43 4.3 6.1 0.02 0.00 0.00 68 1009.0
20260503200142 87 43 4.3 6.1 0.02 0.00 0.00 68 1009.0
20260503194241 87 43 4.3 6.1 0.00 0.00 0.00 68 1009.0
20260503194141 87 43 4.3 6.1 0.00 0.00 0.00 68 1009.0
20260503192241 87 43 4.3 6.1 0.02 0.00 0.00 68 1010.0
20260503192140 87 43 4.3 6.1 0.02 0.00 0.00 68 1010.0
20260503190240 87 43 4.3 6.1 0.00 0.00 0.00 68 1010.0
20260503190140 87 43 4.3 6.1 0.00 0.00 0.00 68 1010.0
20260503184239 87 43 4.3 6.1 0.02 0.00 0.00 68 1010.0
20260503184139 87 43 4.3 6.1 0.02 0.00 0.00 68 1010.0
20260503182239 83 334 2.6 4.3 0.00 0.00 0.00 73 1011.0
20260503182139 83 334 2.6 4.3 0.00 0.00 0.00 73 1011.0
20260503180238 81 197 2.6 3.5 0.00 0.00 0.00 74 1011.0
20260503180138 81 197 2.6 3.5 0.00 0.00 0.00 74 1011.0
20260503174238 81 197 2.6 3.5 0.00 0.00 0.00 74 1011.0
20260503174137 81 197 2.6 3.5 0.00 0.00 0.00 74 1011.0
20260503172237 81 197 2.6 3.5 0.00 0.00 0.00 74 1012.0
20260503172137 81 197 2.6 3.5 0.00 0.00 0.00 74 1012.0
20260503170237 81 197 2.6 3.5 0.00 0.00 0.00 74 1012.0
20260503170136 81 197 2.6 3.5 0.00 0.00 0.00 74 1012.0
20260503160134 81 197 2.6 3.5 0.00 0.00 0.00 74 1012.0
20260503150233 81 197 2.6 3.5 0.00 0.00 0.00 74 1012.0
20260503150133 81 197 2.6 3.5 0.00 0.00 0.00 74 1012.0
20260503140231 81 197 2.6 3.5 0.00 0.00 0.00 74 1012.0
20260503140131 81 197 2.6 3.5 0.00 0.00 0.00 74 1012.0
20260503130229 81 197 2.6 3.5 0.00 0.00 0.00 74 1011.0
20260503130129 81 197 2.6 3.5 0.00 0.00 0.00 74 1011.0
20260503120128 81 197 2.6 3.5 0.00 0.00 0.00 74 1011.0
20260503110226 81 197 2.6 3.5 0.00 0.00 0.00 74 1011.0
20260503110126 81 197 2.6 3.5 0.00 0.00 0.00 74 1011.0